Voltar ao catálogo

ELECTRON KICK STAGE R/B

AtivoVLEO
NORAD 69178·ROCKET BODY·🇺🇸 United States

Lançado May 22, 2026 de Rocket Lab Launch Complex 1

Loading…

Próximas Passagens (próximas 24 horas)

TLE

AtualizadoSource: Space-Track

Época: Sep 14, 2026, 21:58 UTC

1 69178U 26112B   26257.91546405  .00004360  00000-0  33527-3 0  9995
2 69178  44.9064  80.2191 0025994 196.3799 163.6235 15.02852012 17374

Acompanhe ELECTRON KICK STAGE R/B em tempo real com AllMySat

Download on the App Store